sat.trackr.live / text

‹ back to catalog

STARLINK-5341

NORAD 55287 · 2023-010U

PAYLOAD ACTIVE UNKNOWN

§ Identity

Operator
Country
US
Launch date
2023-01-19
Launch site
AFWTR
Launch vehicle
Mass (kg)
RCS (m²)

Purposes: comms

External: N2YO · Heavens-Above · Gunter

§ Orbital elements

Epoch: 2026-05-25T02:40:03.314208Z

Period
96.11 min
Inclination
69.9986°
Eccentricity
0.0003958
Mean motion
14.98333007 rev/d
Perigee alt
569.3 km
Apogee alt
574.8 km
Semi-major
6,950.2 km
B*
3.6023e-5
RAAN
171.9164°
Arg perigee
264.4960°
Mean anomaly
95.5748°
Rev number
18,520

§ Raw data

STARLINK-53411 55287U 23010U   26145.11114947  .00000337  00000+0  36023-4 0  99992 55287  69.9986 171.9164 0003958 264.4960  95.5748 14.98333007185203

JSON: /api/v1/satellites/55287 · /tle

For live sub-satellite position, see the globe view (requires WebGL).

§ Visibility from observer

Set your observer location to see the next 7 days of passes ≥ 10°. The values pass through the URL so the page stays shareable.

No JS? Fill the form by hand. The geolocation button needs JavaScript.